| time (UTC) | temp F | wind direction | speed MPH | gust MPH | rain 1hr in | rain 24hr in | rain mn in | humidity % | barometer mb |
| 20260505125030 | 59 | 166 | 0.0 | 3.0 | 0.00 | 0.00 | 0.00 | 78 | 1010.2 |
| 20260505124547 | 58 | 160 | 0.0 | 4.0 | 0.00 | 0.00 | 0.00 | 77 | 1010.3 |
| 20260505124033 | 58 | 152 | 1.0 | 4.0 | 0.00 | 0.00 | 0.00 | 78 | 1010.3 |
| 20260505123531 | 58 | 127 | 0.0 | 3.0 | 0.00 | 0.00 | 0.00 | 78 | 1010.2 |
| 20260505123043 | 57 | 159 | 1.0 | 3.0 | 0.00 | 0.00 | 0.00 | 80 | 1010.3 |
| 20260505122531 | 57 | 246 | 0.0 | 3.0 | 0.00 | 0.00 | 0.00 | 80 | 1010.2 |
| 20260505122030 | 56 | 0 | 1.0 | 2.0 | 0.00 | 0.00 | 0.00 | 81 | 1010.3 |
| 20260505121543 | 56 | 250 | 1.0 | 2.0 | 0.00 | 0.00 | 0.00 | 81 | 1010.1 |
| 20260505121030 | 55 | 139 | 0.0 | 2.0 | 0.00 | 0.00 | 0.00 | 83 | 1010.1 |
| 20260505120532 | 54 | 0 | 0.0 | 2.0 | 0.00 | 0.00 | 0.00 | 84 | 1010.3 |
| 20260505120038 | 54 | 0 | 0.0 | 1.0 | 0.00 | 0.00 | 0.00 | 85 | 1010.3 |
| 20260505115529 | 53 | 0 | 0.0 | 0.0 | 0.00 | 0.00 | 0.00 | 86 | 1010.3 |
| 20260505115030 | 52 | 0 | 0.0 | 1.0 | 0.00 | 0.00 | 0.00 | 88 | 1010.2 |
| 20260505114535 | 52 | 0 | 0.0 | 1.0 | 0.00 | 0.00 | 0.00 | 87 | 1010.2 |
| 20260505114030 | 52 | 0 | 0.0 | 1.0 | 0.00 | 0.00 | 0.00 | 87 | 1010.6 |
| 20260505113530 | 52 | 0 | 0.0 | 1.0 | 0.00 | 0.00 | 0.00 | 88 | 1010.6 |
| 20260505113044 | 51 | 0 | 0.0 | 1.0 | 0.00 | 0.00 | 0.00 | 89 | 1010.5 |
| 20260505112530 | 51 | 54 | 0.0 | 2.0 | 0.00 | 0.00 | 0.00 | 90 | 1010.3 |
| 20260505112030 | 50 | 0 | 0.0 | 2.0 | 0.00 | 0.00 | 0.00 | 90 | 1010.4 |
| 20260505111543 | 49 | 228 | 0.0 | 2.0 | 0.00 | 0.00 | 0.00 | 91 | 1010.6 |
| 20260505111030 | 49 | 0 | 0.0 | 2.0 | 0.00 | 0.00 | 0.00 | 92 | 1010.3 |
| 20260505110530 | 48 | 148 | 0.0 | 2.0 | 0.00 | 0.00 | 0.00 | 93 | 1010.2 |
| 20260505102030 | 44 | 0 | 0.0 | 0.0 | 0.00 | 0.00 | 0.00 | 93 | 1009.7 |
| 20260505101550 | 44 | 0 | 0.0 | 0.0 | 0.00 | 0.00 | 0.00 | 92 | 1009.6 |
| 20260505101030 | 44 | 0 | 0.0 | 0.0 | 0.00 | 0.00 | 0.00 | 93 | 1009.7 |
| 20260505100530 | 44 | 0 | 0.0 | 0.0 | 0.00 | 0.00 | 0.00 | 92 | 1009.7 |
| 20260505100045 | 44 | 0 | 0.0 | 0.0 | 0.00 | 0.00 | 0.00 | 93 | 1009.5 |
| 20260505095530 | 44 | 0 | 0.0 | 0.0 | 0.00 | 0.00 | 0.00 | 92 | 1009.4 |
| 20260505095030 | 44 | 0 | 0.0 | 0.0 | 0.00 | 0.00 | 0.00 | 92 | 1009.7 |
| 20260505094547 | 45 | 0 | 0.0 | 0.0 | 0.00 | 0.00 | 0.00 | 92 | 1009.5 |
| 20260505094030 | 45 | 0 | 0.0 | 0.0 | 0.00 | 0.00 | 0.00 | 91 | 1009.6 |
| 20260505093530 | 45 | 0 | 0.0 | 0.0 | 0.00 | 0.00 | 0.00 | 91 | 1009.5 |
| 20260505093043 | 45 | 0 | 0.0 | 0.0 | 0.00 | 0.00 | 0.00 | 91 | 1009.5 |
| 20260505092529 | 46 | 0 | 0.0 | 0.0 | 0.00 | 0.00 | 0.00 | 91 | 1009.5 |
| 20260505092030 | 46 | 0 | 0.0 | 0.0 | 0.00 | 0.00 | 0.00 | 91 | 1009.6 |
| 20260505091540 | 46 | 0 | 0.0 | 0.0 | 0.00 | 0.00 | 0.00 | 91 | 1009.4 |
| 20260505091029 | 46 | 0 | 0.0 | 0.0 | 0.00 | 0.00 | 0.00 | 91 | 1009.4 |
| 20260505090530 | 46 | 0 | 0.0 | 0.0 | 0.00 | 0.00 | 0.00 | 91 | 1009.5 |
| 20260505090048 | 46 | 0 | 0.0 | 0.0 | 0.00 | 0.00 | 0.00 | 91 | 1009.6 |
| 20260505085530 | 46 | 0 | 0.0 | 0.0 | 0.00 | 0.00 | 0.00 | 92 | 1009.6 |
| 20260505085030 | 46 | 0 | 0.0 | 0.0 | 0.00 | 0.00 | 0.00 | 92 | 1009.7 |
| 20260505084552 | 46 | 0 | 0.0 | 0.0 | 0.00 | 0.00 | 0.00 | 93 | 1009.7 |
| 20260505084030 | 45 | 0 | 0.0 | 0.0 | 0.00 | 0.00 | 0.00 | 93 | 1009.7 |
| 20260505083529 | 45 | 0 | 0.0 | 0.0 | 0.00 | 0.00 | 0.00 | 91 | 1009.8 |
| 20260505083055 | 45 | 0 | 0.0 | 0.0 | 0.00 | 0.00 | 0.00 | 90 | 1009.9 |
| 20260505082529 | 45 | 0 | 0.0 | 0.0 | 0.00 | 0.00 | 0.00 | 90 | 1009.8 |
| 20260505082155 | 46 | 0 | 0.0 | 0.0 | 0.00 | 0.00 | 0.00 | 89 | 1009.8 |
| 20260505081547 | 47 | 0 | 0.0 | 0.0 | 0.00 | 0.00 | 0.00 | 90 | 1009.8 |
| 20260505081030 | 47 | 0 | 0.0 | 0.0 | 0.00 | 0.00 | 0.00 | 91 | 1009.8 |
| 20260505080530 | 46 | 0 | 0.0 | 0.0 | 0.00 | 0.00 | 0.00 | 91 | 1009.8 |
| 20260505080048 | 46 | 0 | 0.0 | 0.0 | 0.00 | 0.00 | 0.00 | 92 | 1009.8 |
| 20260505075529 | 46 | 0 | 0.0 | 0.0 | 0.00 | 0.00 | 0.00 | 92 | 1009.8 |
| 20260505075030 | 45 | 0 | 0.0 | 0.0 | 0.00 | 0.00 | 0.00 | 92 | 1010.0 |
| 20260505074539 | 45 | 0 | 0.0 | 0.0 | 0.00 | 0.00 | 0.00 | 92 | 1010.1 |
| 20260505074030 | 45 | 0 | 0.0 | 0.0 | 0.00 | 0.00 | 0.00 | 92 | 1010.0 |
| 20260505073530 | 45 | 0 | 0.0 | 0.0 | 0.00 | 0.00 | 0.00 | 91 | 1010.0 |
| 20260505073046 | 45 | 0 | 0.0 | 0.0 | 0.00 | 0.00 | 0.00 | 91 | 1009.9 |
| 20260505072530 | 45 | 0 | 0.0 | 0.0 | 0.00 | 0.00 | 0.00 | 91 | 1009.8 |
| 20260505072029 | 45 | 0 | 0.0 | 0.0 | 0.00 | 0.00 | 0.00 | 91 | 1010.0 |
| 20260505071547 | 45 | 0 | 0.0 | 0.0 | 0.00 | 0.00 | 0.00 | 91 | 1010.1 |
| 20260505071032 | 45 | 0 | 0.0 | 0.0 | 0.00 | 0.00 | 0.00 | 91 | 1010.1 |
| 20260505070530 | 45 | 0 | 0.0 | 0.0 | 0.00 | 0.00 | 0.00 | 91 | 1010.1 |
| 20260505070041 | 45 | 0 | 0.0 | 0.0 | 0.00 | 0.00 | 0.00 | 91 | 1010.1 |
| 20260505065833 | 45 | 0 | 0.0 | 0.0 | 0.00 | 0.00 | 0.00 | 90 | 1010.0 |
| 20260505065029 | 45 | 0 | 0.0 | 0.0 | 0.00 | 0.00 | 0.00 | 90 | 1010.1 |
| 20260505064543 | 45 | 0 | 0.0 | 0.0 | 0.00 | 0.00 | 0.00 | 89 | 1010.2 |
| 20260505064031 | 46 | 0 | 0.0 | 0.0 | 0.00 | 0.00 | 0.00 | 89 | 1010.0 |
| 20260505063530 | 46 | 0 | 0.0 | 0.0 | 0.00 | 0.00 | 0.00 | 89 | 1010.1 |
| 20260505063042 | 46 | 0 | 0.0 | 0.0 | 0.00 | 0.00 | 0.00 | 88 | 1010.1 |
| 20260505062530 | 46 | 0 | 0.0 | 0.0 | 0.00 | 0.00 | 0.00 | 88 | 1010.3 |
| 20260505062030 | 46 | 0 | 0.0 | 0.0 | 0.00 | 0.00 | 0.00 | 86 | 1010.2 |
| 20260505061539 | 47 | 0 | 0.0 | 0.0 | 0.00 | 0.00 | 0.00 | 85 | 1010.3 |
| 20260505061030 | 47 | 0 | 0.0 | 0.0 | 0.00 | 0.00 | 0.00 | 86 | 1010.2 |
| 20260505060530 | 47 | 0 | 0.0 | 0.0 | 0.00 | 0.00 | 0.00 | 86 | 1010.3 |
| 20260505060049 | 48 | 0 | 0.0 | 0.0 | 0.00 | 0.00 | 0.00 | 85 | 1010.2 |
| 20260505055530 | 48 | 0 | 0.0 | 0.0 | 0.00 | 0.00 | 0.00 | 85 | 1010.3 |
| 20260505055030 | 48 | 0 | 0.0 | 0.0 | 0.00 | 0.00 | 0.00 | 84 | 1010.2 |
| 20260505054541 | 49 | 0 | 0.0 | 0.0 | 0.00 | 0.00 | 0.00 | 83 | 1010.3 |
| 20260505054029 | 49 | 0 | 0.0 | 0.0 | 0.00 | 0.00 | 0.00 | 83 | 1010.3 |
| 20260505053532 | 50 | 0 | 0.0 | 0.0 | 0.00 | 0.00 | 0.00 | 82 | 1010.4 |
| 20260505053038 | 50 | 0 | 0.0 | 0.0 | 0.00 | 0.00 | 0.00 | 81 | 1010.4 |
| 20260505052529 | 50 | 0 | 0.0 | 0.0 | 0.00 | 0.00 | 0.00 | 81 | 1010.4 |
| 20260505052029 | 50 | 0 | 0.0 | 0.0 | 0.00 | 0.00 | 0.00 | 80 | 1010.4 |
| 20260505051541 | 51 | 0 | 0.0 | 0.0 | 0.00 | 0.00 | 0.00 | 80 | 1010.6 |
| 20260505051030 | 51 | 0 | 0.0 | 0.0 | 0.00 | 0.00 | 0.00 | 79 | 1010.6 |
| 20260505050531 | 51 | 0 | 0.0 | 0.0 | 0.00 | 0.00 | 0.00 | 79 | 1010.6 |
| 20260505041535 | 53 | 0 | 0.0 | 0.0 | 0.00 | 0.00 | 0.00 | 74 | 1010.4 |
| 20260505041030 | 53 | 0 | 0.0 | 0.0 | 0.00 | 0.00 | 0.00 | 74 | 1010.5 |
| 20260505040530 | 53 | 0 | 0.0 | 0.0 | 0.00 | 0.00 | 0.00 | 73 | 1010.5 |
| 20260505040044 | 54 | 0 | 0.0 | 0.0 | 0.00 | 0.00 | 0.00 | 72 | 1010.4 |
| 20260505035531 | 54 | 0 | 0.0 | 0.0 | 0.00 | 0.00 | 0.00 | 72 | 1010.4 |
| 20260505035026 | 54 | 0 | 0.0 | 0.0 | 0.00 | 0.00 | 0.00 | 72 | 1010.4 |
| 20260505034540 | 54 | 0 | 0.0 | 0.0 | 0.00 | 0.00 | 0.00 | 71 | 1010.3 |
| 20260505034030 | 54 | 0 | 0.0 | 0.0 | 0.00 | 0.00 | 0.00 | 71 | 1010.3 |
| 20260505033530 | 54 | 0 | 0.0 | 0.0 | 0.00 | 0.00 | 0.00 | 71 | 1010.3 |
| 20260505033046 | 54 | 0 | 0.0 | 0.0 | 0.00 | 0.00 | 0.00 | 70 | 1010.3 |
| 20260505032535 | 55 | 0 | 0.0 | 0.0 | 0.00 | 0.00 | 0.00 | 70 | 1010.2 |
| 20260505032031 | 55 | 0 | 0.0 | 0.0 | 0.00 | 0.00 | 0.00 | 70 | 1010.2 |
| 20260505031551 | 55 | 0 | 0.0 | 0.0 | 0.00 | 0.00 | 0.00 | 69 | 1010.3 |
| 20260505031029 | 55 | 0 | 0.0 | 0.0 | 0.00 | 0.00 | 0.00 | 69 | 1010.3 |
| 20260505030530 | 55 | 0 | 0.0 | 0.0 | 0.00 | 0.00 | 0.00 | 69 | 1010.2 |
| 20260505030047 | 55 | 0 | 0.0 | 2.0 | 0.00 | 0.00 | 0.00 | 68 | 1010.2 |
| 20260505025531 | 56 | 0 | 0.0 | 2.0 | 0.00 | 0.00 | 0.00 | 68 | 1010.1 |
| 20260505025030 | 56 | 148 | 1.0 | 2.0 | 0.00 | 0.00 | 0.00 | 67 | 1010.1 |
| 20260505024550 | 56 | 157 | 1.0 | 3.0 | 0.00 | 0.00 | 0.00 | 67 | 1010.1 |
| 20260505024033 | 56 | 151 | 0.0 | 3.0 | 0.00 | 0.00 | 0.00 | 67 | 1010.1 |
| 20260505023529 | 56 | 118 | 1.0 | 3.0 | 0.00 | 0.00 | 0.00 | 66 | 1010.0 |
| 20260505023046 | 57 | 203 | 1.0 | 3.0 | 0.00 | 0.00 | 0.00 | 66 | 1010.0 |
| 20260505022529 | 57 | 150 | 1.0 | 3.0 | 0.00 | 0.00 | 0.00 | 66 | 1010.0 |
| 20260505022030 | 57 | 155 | 1.0 | 4.0 | 0.00 | 0.00 | 0.00 | 65 | 1010.1 |
| 20260505021541 | 57 | 131 | 1.0 | 4.0 | 0.00 | 0.00 | 0.00 | 65 | 1010.0 |
| 20260505021030 | 57 | 145 | 1.0 | 4.0 | 0.00 | 0.00 | 0.00 | 65 | 1010.0 |
| 20260505020530 | 58 | 172 | 1.0 | 4.0 | 0.00 | 0.00 | 0.00 | 64 | 1010.0 |
| 20260505020038 | 58 | 223 | 1.0 | 3.0 | 0.00 | 0.00 | 0.00 | 64 | 1009.9 |
| 20260505015530 | 58 | 141 | 1.0 | 3.0 | 0.00 | 0.00 | 0.00 | 63 | 1009.9 |
| 20260505015030 | 58 | 158 | 1.0 | 4.0 | 0.00 | 0.00 | 0.00 | 63 | 1009.9 |
| 20260505014601 | 58 | 136 | 1.0 | 4.0 | 0.00 | 0.00 | 0.00 | 63 | 1009.8 |
| 20260505014029 | 59 | 148 | 1.0 | 3.0 | 0.00 | 0.00 | 0.00 | 62 | 1009.8 |
| 20260505013529 | 59 | 153 | 0.0 | 2.0 | 0.00 | 0.00 | 0.00 | 62 | 1009.8 |
| 20260505013044 | 59 | 137 | 0.0 | 2.0 | 0.00 | 0.00 | 0.00 | 61 | 1009.9 |
| 20260505012529 | 59 | 158 | 1.0 | 2.0 | 0.00 | 0.00 | 0.00 | 60 | 1009.8 |
| 20260505012029 | 59 | 149 | 0.0 | 2.0 | 0.00 | 0.00 | 0.00 | 60 | 1009.7 |
| 20260505011549 | 60 | 149 | 1.0 | 2.0 | 0.00 | 0.00 | 0.00 | 59 | 1009.6 |
| 20260505011030 | 60 | 0 | 0.0 | 1.0 | 0.00 | 0.00 | 0.00 | 58 | 1009.6 |
| 20260505010530 | 60 | 150 | 0.0 | 2.0 | 0.00 | 0.00 | 0.00 | 58 | 1009.5 |
| 20260505010041 | 61 | 158 | 1.0 | 2.0 | 0.00 | 0.00 | 0.00 | 57 | 1009.3 |
| 20260505005530 | 61 | 149 | 1.0 | 2.0 | 0.00 | 0.00 | 0.00 | 57 | 1009.3 |
| 20260505005030 | 61 | 154 | 1.0 | 6.0 | 0.00 | 0.00 | 0.00 | 57 | 1009.2 |
| 20260505004539 | 61 | 163 | 1.0 | 6.0 | 0.00 | 0.00 | 0.00 | 56 | 1009.1 |
| 20260505004029 | 62 | 148 | 2.0 | 6.0 | 0.00 | 0.00 | 0.00 | 55 | 1009.1 |
| 20260505003532 | 62 | 135 | 1.0 | 6.0 | 0.00 | 0.00 | 0.00 | 56 | 1009.0 |
| 20260505003040 | 62 | 157 | 1.0 | 6.0 | 0.00 | 0.00 | 0.00 | 55 | 1008.9 |
| 20260505002529 | 62 | 146 | 1.0 | 4.0 | 0.00 | 0.00 | 0.00 | 55 | 1008.8 |
| 20260505002030 | 62 | 137 | 1.0 | 6.0 | 0.00 | 0.00 | 0.00 | 54 | 1008.8 |
| 20260505001545 | 63 | 171 | 1.0 | 6.0 | 0.00 | 0.00 | 0.00 | 54 | 1008.7 |
| 20260505001029 | 63 | 160 | 2.0 | 6.0 | 0.00 | 0.00 | 0.00 | 52 | 1008.3 |
| 20260505000529 | 63 | 159 | 2.0 | 6.0 | 0.00 | 0.00 | 0.00 | 52 | 1008.4 |
| 20260505000047 | 63 | 140 | 2.0 | 6.0 | 0.00 | 0.00 | 0.00 | 52 | 1008.4 |
| 20260504235530 | 64 | 151 | 1.0 | 6.0 | 0.00 | 0.00 | 0.00 | 52 | 1008.2 |
| 20260504235030 | 64 | 154 | 2.0 | 6.0 | 0.00 | 0.00 | 0.00 | 51 | 1008.2 |
| 20260504234541 | 65 | 147 | 2.0 | 5.0 | 0.00 | 0.00 | 0.00 | 50 | 1008.0 |
| 20260504234030 | 65 | 160 | 2.0 | 5.0 | 0.00 | 0.00 | 0.00 | 49 | 1007.9 |
| 20260504233531 | 66 | 176 | 2.0 | 5.0 | 0.00 | 0.00 | 0.00 | 47 | 1007.9 |
| 20260504233040 | 67 | 148 | 3.0 | 5.0 | 0.00 | 0.00 | 0.00 | 45 | 1007.9 |
| 20260504232533 | 68 | 209 | 1.0 | 4.0 | 0.00 | 0.00 | 0.00 | 42 | 1007.6 |
| 20260504232030 | 68 | 0 | 0.0 | 4.0 | 0.00 | 0.00 | 0.00 | 39 | 1007.6 |
| 20260504231535 | 68 | 149 | 1.0 | 4.0 | 0.00 | 0.00 | 0.00 | 38 | 1007.4 |
| 20260504231029 | 69 | 200 | 1.0 | 8.0 | 0.00 | 0.00 | 0.00 | 38 | 1007.2 |
| 20260504230529 | 69 | 122 | 2.0 | 8.0 | 0.00 | 0.00 | 0.00 | 37 | 1007.2 |
| 20260504230046 | 69 | 136 | 1.0 | 4.0 | 0.00 | 0.00 | 0.00 | 37 | 1007.2 |
| 20260504225530 | 70 | 169 | 2.0 | 4.0 | 0.00 | 0.00 | 0.00 | 36 | 1007.2 |
| 20260504225032 | 70 | 153 | 1.0 | 4.0 | 0.00 | 0.00 | 0.00 | 37 | 1007.3 |
| 20260504224546 | 71 | 194 | 1.0 | 3.0 | 0.00 | 0.00 | 0.00 | 37 | 1007.3 |
| 20260504224030 | 71 | 283 | 1.0 | 5.0 | 0.00 | 0.00 | 0.00 | 35 | 1007.2 |
| 20260504223530 | 72 | 154 | 1.0 | 7.0 | 0.00 | 0.00 | 0.00 | 37 | 1007.1 |
| 20260504223039 | 72 | 212 | 1.0 | 7.0 | 0.00 | 0.00 | 0.00 | 35 | 1007.1 |
| 20260504222529 | 72 | 131 | 2.0 | 6.0 | 0.00 | 0.00 | 0.00 | 36 | 1007.2 |
| 20260504222032 | 72 | 164 | 2.0 | 6.0 | 0.00 | 0.00 | 0.00 | 35 | 1007.3 |
| 20260504221535 | 73 | 181 | 2.0 | 6.0 | 0.00 | 0.00 | 0.00 | 34 | 1007.2 |
| 20260504221029 | 72 | 220 | 2.0 | 6.0 | 0.00 | 0.00 | 0.00 | 35 | 1007.4 |
| 20260504220530 | 72 | 24 | 2.0 | 8.0 | 0.00 | 0.00 | 0.00 | 34 | 1007.3 |
| 20260504220042 | 72 | 131 | 3.0 | 11.0 | 0.00 | 0.00 | 0.00 | 35 | 1007.4 |
| 20260504215530 | 73 | 172 | 4.0 | 11.0 | 0.00 | 0.00 | 0.00 | 33 | 1007.5 |
| 20260504215032 | 73 | 145 | 2.0 | 6.0 | 0.00 | 0.00 | 0.00 | 34 | 1007.4 |
| 20260504214552 | 72 | 200 | 2.0 | 7.0 | 0.00 | 0.00 | 0.00 | 34 | 1007.3 |
| 20260504214032 | 72 | 294 | 2.0 | 7.0 | 0.00 | 0.00 | 0.00 | 36 | 1007.4 |
| 20260504213529 | 72 | 323 | 3.0 | 7.0 | 0.00 | 0.00 | 0.00 | 36 | 1007.6 |
| 20260504213036 | 71 | 0 | 1.0 | 11.0 | 0.00 | 0.00 | 0.00 | 37 | 1007.5 |
| 20260504212529 | 71 | 291 | 3.0 | 11.0 | 0.00 | 0.00 | 0.00 | 34 | 1007.5 |
| 20260504212032 | 72 | 212 | 2.0 | 11.0 | 0.00 | 0.00 | 0.00 | 37 | 1007.3 |
| 20260504211547 | 72 | 196 | 4.0 | 11.0 | 0.00 | 0.00 | 0.00 | 35 | 1007.6 |
| 20260504211031 | 73 | 210 | 3.0 | 11.0 | 0.00 | 0.00 | 0.00 | 34 | 1007.5 |
| 20260504210530 | 73 | 262 | 3.0 | 11.0 | 0.00 | 0.00 | 0.00 | 34 | 1007.5 |
| 20260504210057 | 73 | 135 | 1.0 | 7.0 | 0.00 | 0.00 | 0.00 | 35 | 1007.5 |
| 20260504205529 | 73 | 214 | 3.0 | 9.0 | 0.00 | 0.00 | 0.00 | 36 | 1007.4 |
| 20260504205029 | 72 | 215 | 2.0 | 9.0 | 0.00 | 0.00 | 0.00 | 39 | 1007.5 |
| 20260504204558 | 72 | 234 | 3.0 | 8.0 | 0.00 | 0.00 | 0.00 | 37 | 1007.5 |
| 20260504204029 | 71 | 131 | 3.0 | 11.0 | 0.00 | 0.00 | 0.00 | 38 | 1007.5 |
| 20260504203529 | 71 | 228 | 5.0 | 11.0 | 0.00 | 0.00 | 0.00 | 36 | 1007.5 |
| 20260504203049 | 72 | 268 | 3.0 | 8.0 | 0.00 | 0.00 | 0.00 | 37 | 1007.4 |
| 20260504202529 | 72 | 188 | 4.0 | 8.0 | 0.00 | 0.00 | 0.00 | 37 | 1007.4 |
| 20260504202028 | 71 | 153 | 4.0 | 8.0 | 0.00 | 0.00 | 0.00 | 37 | 1007.5 |
| 20260504201539 | 71 | 207 | 2.0 | 12.0 | 0.00 | 0.00 | 0.00 | 35 | 1007.5 |
| 20260504201029 | 71 | 239 | 3.0 | 12.0 | 0.00 | 0.00 | 0.00 | 35 | 1007.5 |
| 20260504200529 | 71 | 281 | 2.0 | 8.0 | 0.00 | 0.00 | 0.00 | 37 | 1007.6 |
| 20260504200047 | 72 | 309 | 2.0 | 7.0 | 0.00 | 0.00 | 0.00 | 37 | 1007.6 |
| 20260504195529 | 73 | 280 | 3.0 | 6.0 | 0.00 | 0.00 | 0.00 | 35 | 1007.7 |
| 20260504195029 | 73 | 234 | 2.0 | 9.0 | 0.00 | 0.00 | 0.00 | 34 | 1007.7 |
| 20260504194545 | 73 | 147 | 3.0 | 11.0 | 0.00 | 0.00 | 0.00 | 35 | 1007.6 |
| 20260504194030 | 73 | 222 | 4.0 | 11.0 | 0.00 | 0.00 | 0.00 | 34 | 1007.6 |
| 20260504193530 | 73 | 210 | 2.0 | 8.0 | 0.00 | 0.00 | 0.00 | 35 | 1007.6 |
| 20260504193044 | 73 | 133 | 2.0 | 8.0 | 0.00 | 0.00 | 0.00 | 36 | 1007.6 |
| 20260504192529 | 73 | 20 | 2.0 | 13.0 | 0.00 | 0.00 | 0.00 | 38 | 1007.7 |
| 20260504192029 | 72 | 140 | 3.0 | 13.0 | 0.00 | 0.00 | 0.00 | 34 | 1007.5 |
| 20260504191542 | 72 | 205 | 7.0 | 13.0 | 0.00 | 0.00 | 0.00 | 36 | 1007.6 |
| 20260504191031 | 72 | 156 | 4.0 | 8.0 | 0.00 | 0.00 | 0.00 | 38 | 1007.8 |
| 20260504190530 | 72 | 205 | 2.0 | 5.0 | 0.00 | 0.00 | 0.00 | 37 | 1007.7 |
| 20260504190038 | 71 | 92 | 2.0 | 7.0 | 0.00 | 0.00 | 0.00 | 38 | 1007.9 |
| 20260504185529 | 71 | 219 | 3.0 | 8.0 | 0.00 | 0.00 | 0.00 | 38 | 1007.8 |
| 20260504185032 | 72 | 187 | 3.0 | 8.0 | 0.00 | 0.00 | 0.00 | 34 | 1008.0 |
| 20260504184537 | 71 | 299 | 1.0 | 13.0 | 0.00 | 0.00 | 0.00 | 38 | 1007.9 |
| 20260504184029 | 71 | 332 | 4.0 | 13.0 | 0.00 | 0.00 | 0.00 | 37 | 1008.1 |
| 20260504183530 | 71 | 221 | 4.0 | 13.0 | 0.00 | 0.00 | 0.00 | 38 | 1008.0 |
| 20260504183045 | 71 | 354 | 3.0 | 11.0 | 0.00 | 0.00 | 0.00 | 38 | 1008.1 |
| 20260504182529 | 72 | 145 | 3.0 | 15.0 | 0.00 | 0.00 | 0.00 | 34 | 1008.2 |
| 20260504182029 | 71 | 295 | 3.0 | 15.0 | 0.00 | 0.00 | 0.00 | 36 | 1008.1 |
| 20260504181540 | 72 | 342 | 2.0 | 13.0 | 0.00 | 0.00 | 0.00 | 38 | 1008.2 |
| 20260504181029 | 71 | 227 | 3.0 | 10.0 | 0.00 | 0.00 | 0.00 | 37 | 1008.3 |
| 20260504180530 | 71 | 357 | 3.0 | 17.0 | 0.00 | 0.00 | 0.00 | 39 | 1008.5 |
| 20260504180043 | 70 | 223 | 3.0 | 17.0 | 0.00 | 0.00 | 0.00 | 36 | 1008.4 |
| 20260504175531 | 71 | 312 | 4.0 | 12.0 | 0.00 | 0.00 | 0.00 | 35 | 1008.4 |
| 20260504175030 | 70 | 227 | 4.0 | 12.0 | 0.00 | 0.00 | 0.00 | 35 | 1008.3 |
| 20260504174538 | 70 | 20 | 3.0 | 12.0 | 0.00 | 0.00 | 0.00 | 40 | 1008.5 |
| 20260504174026 | 70 | 125 | 3.0 | 11.0 | 0.00 | 0.00 | 0.00 | 40 | 1008.5 |
| 20260504173529 | 70 | 330 | 4.0 | 10.0 | 0.00 | 0.00 | 0.00 | 34 | 1008.6 |
| 20260504173058 | 71 | 300 | 5.0 | 9.0 | 0.00 | 0.00 | 0.00 | 37 | 1008.6 |
| 20260504172529 | 71 | 292 | 1.0 | 8.0 | 0.00 | 0.00 | 0.00 | 38 | 1008.5 |
| 20260504172029 | 70 | 360 | 1.0 | 17.0 | 0.00 | 0.00 | 0.00 | 37 | 1008.7 |
| 20260504171542 | 69 | 90 | 4.0 | 17.0 | 0.00 | 0.00 | 0.00 | 35 | 1008.6 |
| 20260504171031 | 70 | 281 | 3.0 | 17.0 | 0.00 | 0.00 | 0.00 | 38 | 1008.7 |
| 20260504170526 | 69 | 179 | 4.0 | 11.0 | 0.00 | 0.00 | 0.00 | 38 | 1008.7 |
| 20260504151026 | 64 | 171 | 3.0 | 14.0 | 0.00 | 0.00 | 0.00 | 38 | 1009.9 |
| 20260504150526 | 64 | 289 | 5.0 | 14.0 | 0.00 | 0.00 | 0.00 | 40 | 1010.0 |
| 20260504141029 | 62 | 203 | 2.0 | 6.0 | 0.00 | 0.00 | 0.00 | 43 | 1010.8 |
| 20260504140529 | 62 | 220 | 1.0 | 11.0 | 0.00 | 0.00 | 0.00 | 42 | 1010.8 |